TimeEDT,TemperatureF,Dew PointF,Humidity,Sea Level PressureIn,VisibilityMPH,Wind Direction,Wind SpeedMPH,Gust SpeedMPH,PrecipitationIn,Events,Conditions,WindDirDegrees,DateUTC
12:15 AM,69.8,-9999,N/A,30.16,10.0,Calm,Calm,-,N/A,,Mostly Cloudy,0,2013-07-30 04:15:00
12:35 AM,71.6,-9999,N/A,30.16,10.0,Calm,Calm,-,N/A,,Mostly Cloudy,0,2013-07-30 04:35:00
12:55 AM,69.8,69.8,100,30.16,10.0,Calm,Calm,-,N/A,,Scattered Clouds,0,2013-07-30 04:55:00
1:15 AM,69.8,69.8,100,30.16,10.0,Calm,Calm,-,N/A,,Scattered Clouds,0,2013-07-30 05:15:00
1:35 AM,68.0,68.0,100,30.16,7.0,Calm,Calm,-,N/A,,Clear,0,2013-07-30 05:35:00
1:55 AM,69.8,-9999,N/A,30.17,10.0,Calm,Calm,-,N/A,,Clear,0,2013-07-30 05:55:00
2:15 AM,68.0,-9999,N/A,30.17,10.0,Calm,Calm,-,N/A,,Clear,0,2013-07-30 06:15:00
2:35 AM,69.8,-9999,N/A,30.17,10.0,Calm,Calm,-,N/A,,Scattered Clouds,0,2013-07-30 06:35:00
2:55 AM,68.0,-9999,N/A,30.17,10.0,Calm,Calm,-,N/A,,Clear,0,2013-07-30 06:55:00
3:15 AM,66.2,-9999,N/A,30.16,10.0,Calm,Calm,-,N/A,,Clear,0,2013-07-30 07:15:00
3:35 AM,66.2,-9999,N/A,30.17,10.0,Calm,Calm,-,N/A,,Clear,0,2013-07-30 07:35:00
3:55 AM,66.2,-9999,N/A,30.17,7.0,Calm,Calm,-,N/A,,Clear,0,2013-07-30 07:55:00
4:15 AM,66.2,-9999,N/A,30.16,10.0,Calm,Calm,-,N/A,,Clear,0,2013-07-30 08:15:00
4:35 AM,66.2,-9999,N/A,30.16,10.0,Calm,Calm,-,N/A,,Clear,0,2013-07-30 08:35:00
4:55 AM,66.2,-9999,N/A,30.17,10.0,Calm,Calm,-,N/A,,Clear,0,2013-07-30 08:55:00
5:15 AM,64.4,-9999,N/A,30.17,5.0,Calm,Calm,-,N/A,,Clear,0,2013-07-30 09:15:00
5:35 AM,64.4,-9999,N/A,30.17,3.0,Calm,Calm,-,N/A,,Clear,0,2013-07-30 09:35:00
5:55 AM,64.4,-9999,N/A,30.17,7.0,Calm,Calm,-,N/A,,Clear,0,2013-07-30 09:55:00
6:15 AM,64.4,-9999,N/A,30.18,7.0,Calm,Calm,-,N/A,,Clear,0,2013-07-30 10:15:00
6:35 AM,64.4,-9999,N/A,30.18,7.0,Calm,Calm,-,N/A,,Clear,0,2013-07-30 10:35:00
6:55 AM,64.4,-9999,N/A,30.19,7.0,Calm,Calm,-,N/A,,Clear,0,2013-07-30 10:55:00
7:15 AM,66.2,-9999,N/A,30.19,7.0,Calm,Calm,-,N/A,,Clear,0,2013-07-30 11:15:00
7:35 AM,69.8,-9999,N/A,30.21,7.0,Calm,Calm,-,N/A,,Clear,0,2013-07-30 11:35:00
7:55 AM,71.6,-9999,N/A,30.21,10.0,Calm,Calm,-,N/A,,Clear,0,2013-07-30 11:55:00
8:15 AM,71.6,71.6,100,30.22,10.0,Calm,Calm,-,N/A,,Clear,0,2013-07-30 12:15:00
8:35 AM,75.2,73.4,94,30.22,10.0,Calm,Calm,-,N/A,,Clear,0,2013-07-30 12:35:00
8:55 AM,77.0,71.6,83,30.23,10.0,Calm,Calm,-,N/A,,Clear,0,2013-07-30 12:55:00
9:15 AM,78.8,69.8,74,30.23,10.0,ENE,3.5,-,N/A,,Clear,70,2013-07-30 13:15:00
9:35 AM,78.8,68.0,69,30.22,10.0,East,3.5,-,N/A,,Clear,80,2013-07-30 13:35:00
9:55 AM,80.6,68.0,65,30.22,10.0,Calm,Calm,-,N/A,,Clear,0,2013-07-30 13:55:00
10:15 AM,80.6,66.2,61,30.22,10.0,NE,4.6,-,N/A,,Clear,50,2013-07-30 14:15:00
10:35 AM,80.6,66.2,61,30.22,10.0,NE,4.6,-,N/A,,Clear,50,2013-07-30 14:35:00
10:55 AM,80.6,64.4,58,30.22,10.0,SSE,3.5,-,N/A,,Clear,160,2013-07-30 14:55:00
11:15 AM,82.4,66.2,58,30.22,10.0,Calm,Calm,-,N/A,,Clear,0,2013-07-30 15:15:00
11:35 AM,82.4,66.2,58,30.22,10.0,SE,4.6,-,N/A,,Scattered Clouds,130,2013-07-30 15:35:00
11:55 AM,82.4,64.4,54,30.21,10.0,SE,3.5,-,N/A,,Scattered Clouds,130,2013-07-30 15:55:00
12:15 PM,84.2,64.4,51,30.21,10.0,SSE,3.5,-,N/A,,Scattered Clouds,150,2013-07-30 16:15:00
12:55 PM,84.2,64.4,51,30.21,10.0,SSE,3.5,-,N/A,,Clear,160,2013-07-30 16:55:00
1:15 PM,84.2,62.6,48,30.20,10.0,Calm,Calm,-,N/A,,Scattered Clouds,0,2013-07-30 17:15:00
1:35 PM,84.2,62.6,48,30.20,10.0,SE,4.6,-,N/A,,Scattered Clouds,130,2013-07-30 17:35:00
2:15 PM,84.2,60.8,45,30.18,10.0,Calm,Calm,-,N/A,,Clear,0,2013-07-30 18:15:00
2:35 PM,84.2,60.8,45,30.17,10.0,Calm,Calm,-,N/A,,Scattered Clouds,0,2013-07-30 18:35:00
2:55 PM,84.2,60.8,45,30.17,10.0,Calm,Calm,-,N/A,,Scattered Clouds,0,2013-07-30 18:55:00
3:15 PM,87.8,62.6,43,30.16,10.0,ESE,3.5,-,N/A,,Scattered Clouds,110,2013-07-30 19:15:00
3:35 PM,84.2,62.6,48,30.16,10.0,Calm,Calm,-,N/A,,Scattered Clouds,0,2013-07-30 19:35:00
3:55 PM,87.8,62.6,43,30.15,10.0,NNE,3.5,-,N/A,,Scattered Clouds,30,2013-07-30 19:55:00
4:15 PM,86.0,62.6,45,30.15,10.0,Calm,Calm,-,N/A,,Clear,0,2013-07-30 20:15:00
4:35 PM,86.0,62.6,45,30.15,10.0,Calm,Calm,-,N/A,,Clear,0,2013-07-30 20:35:00
4:55 PM,84.2,62.6,48,30.15,10.0,Calm,Calm,-,N/A,,Scattered Clouds,0,2013-07-30 20:55:00
5:15 PM,87.8,62.6,43,30.15,10.0,Calm,Calm,-,N/A,,Scattered Clouds,0,2013-07-30 21:15:00
5:35 PM,86.0,64.4,48,30.15,10.0,West,4.6,-,N/A,,Mostly Cloudy,280,2013-07-30 21:35:00
5:55 PM,87.8,62.6,43,30.15,10.0,Calm,Calm,-,N/A,,Scattered Clouds,0,2013-07-30 21:55:00
6:15 PM,84.2,64.4,51,30.15,10.0,Calm,Calm,-,N/A,,Scattered Clouds,0,2013-07-30 22:15:00
6:35 PM,84.2,62.6,48,30.15,10.0,Calm,Calm,-,N/A,,Scattered Clouds,0,2013-07-30 22:35:00
6:55 PM,84.2,64.4,51,30.15,10.0,Calm,Calm,-,N/A,,Clear,0,2013-07-30 22:55:00
7:15 PM,82.4,69.8,66,30.15,10.0,Calm,Calm,-,N/A,,Clear,0,2013-07-30 23:15:00
7:35 PM,82.4,69.8,66,30.15,10.0,Calm,Calm,-,N/A,,Scattered Clouds,0,2013-07-30 23:35:00
7:55 PM,80.6,71.6,74,30.15,10.0,Calm,Calm,-,N/A,,Scattered Clouds,0,2013-07-30 23:55:00
8:15 PM,78.8,66.2,65,30.15,10.0,East,3.5,-,N/A,,Scattered Clouds,90,2013-07-31 00:15:00
8:35 PM,77.0,66.2,69,30.16,10.0,East,3.5,-,N/A,,Scattered Clouds,80,2013-07-31 00:35:00
8:55 PM,77.0,66.2,69,30.15,10.0,Calm,Calm,-,N/A,,Mostly Cloudy,0,2013-07-31 00:55:00
9:15 PM,75.2,66.2,73,30.15,10.0,East,3.5,-,N/A,,Scattered Clouds,100,2013-07-31 01:15:00
9:35 PM,75.2,66.2,73,30.16,10.0,Calm,Calm,-,N/A,,Clear,0,2013-07-31 01:35:00
9:55 PM,73.4,66.2,78,30.16,10.0,Calm,Calm,-,N/A,,Clear,0,2013-07-31 01:55:00
10:15 PM,71.6,69.8,94,30.16,10.0,ESE,3.5,-,N/A,,Clear,120,2013-07-31 02:15:00
10:35 PM,73.4,66.2,78,30.17,10.0,East,3.5,-,N/A,,Clear,100,2013-07-31 02:35:00
10:55 PM,73.4,66.2,78,30.16,10.0,ESE,3.5,-,N/A,,Clear,110,2013-07-31 02:55:00
11:15 PM,73.4,66.2,78,30.16,10.0,Calm,Calm,-,N/A,,Clear,0,2013-07-31 03:15:00
11:35 PM,73.4,66.2,78,30.16,10.0,Calm,Calm,-,N/A,,Clear,0,2013-07-31 03:35:00
11:55 PM,71.6,66.2,83,30.16,10.0,Calm,Calm,-,N/A,,Clear,0,2013-07-31 03:55:00